Home   Weather   Mönchengladbach   Past weeks

Flag for Germany Past Weather in Mönchengladbach, North Rhine-Westphalia, Germany — Yesterday and Last 2 Weeks

Now
66 °F

Sunny.


Feels Like: 66 °F
Forecast: 56 / 64 °F
Wind: 8 mph from North

Location: Monchengladbach Airport

Current Time: Sep 29, 2016 at 10:28:50 AM

Latest Report: Sep 29, 2016 at 9:50 AM


Visibility: 10 mi

Pressure: 30.07 "Hg

Humidity: 73%

Dew Point: 57 °F

Location of MönchengladbachLocation

Past Weather in Mönchengladbach — Graph

°F

Mönchengladbach Temperature Yesterday

Maximum temperature yesterday: 73 °F (at 4:20 PM)
Minimum temperature yesterday: 57 °F (at 7:50 AM)
Average temperature yesterday: 67 °F

High & Low Weather Summary for the Past Weeks

 TemperatureHumidityPressure
High90 °F (Sep 14, 3:50 PM)100% (Sep 17, 7:50 AM)30.33 "Hg (Sep 17, 7:50 AM)
Low45 °F (Sep 27, 7:50 AM)29% (Sep 14, 4:20 PM)29.77 "Hg (Sep 15, 4:20 PM)
Average66 °F64%30.09 "Hg
* Reported Sep 14 8:20 AM — Sep 29 8:50 AM, Mönchengladbach, Weather by CustomWeather, © 2016

Note: Actual official high and low records may vary slightly from our data, if they occured in-between our weather recording intervals... More about our weather records

Advertising

Mönchengladbach Weather History for the Previous 24 Hours

Scroll right to see more
 ConditionsComfort  
Time TempWeatherWind HumidityBarometerVisibility
8:50 AM
Thu, Sep 29
63 °FSunny.8 mph83%30.07 "Hg10 mi
8:20 AM61 °FSunny.6 mph83%30.07 "Hg10 mi
7:50 AM59 °FSunny.5 mph88%30.09 "Hg10 mi
7:50 PM
Wed, Sep 28
66 °FClear.2 mph60%30.24 "Hg10 mi
7:20 PM68 °FClear.3 mph53%30.24 "Hg10 mi
6:50 PM70 °FPassing clouds.7 mph50%30.24 "HgN/A
6:20 PM70 °FPassing clouds.8 mph53%30.24 "HgN/A
5:50 PM70 °FPassing clouds.8 mph53%30.24 "HgN/A
5:20 PM72 °FPassing clouds.9 mph53%30.24 "HgN/A
4:50 PM73 °FClear.10 mph50%30.24 "Hg10 mi
4:20 PM73 °FPassing clouds.9 mph53%30.24 "HgN/A
3:50 PM72 °FPassing clouds.8 mph53%30.24 "HgN/A
3:20 PM72 °FPassing clouds.10 mph53%30.24 "HgN/A
2:50 PM72 °FPassing clouds.14 mph53%30.24 "HgN/A
2:20 PM72 °FPassing clouds.17 mph53%30.24 "HgN/A
1:50 PM70 °FPassing clouds.10 mph60%30.27 "HgN/A
1:20 PM68 °FPassing clouds.10 mph64%30.27 "HgN/A
12:50 PM68 °FPassing clouds.10 mph64%30.27 "HgN/A
12:20 PM66 °FPassing clouds.10 mph73%30.27 "HgN/A
11:50 AM66 °FPassing clouds.10 mph68%30.27 "HgN/A
11:20 AM64 °FPassing clouds.10 mph78%30.30 "HgN/A
10:50 AM63 °FPassing clouds.7 mph77%30.30 "HgN/A
10:20 AM63 °FPartly sunny.8 mph73%30.27 "HgN/A
Weather by CustomWeather, © 2016

See weather overviewHow to use our weather pages